Regional Weather Roundup
Issued by NWS

Home | Current Version | Previous Version | Graphics & Text | Print | Product List | Glossary On
Versions: 1 2 3 4 5 6 7 8 9 10 11 12 13 14 15 16 17 18 19 20 21 22 23 24 25 26 27 28 29 30 31 32 33 34 35 36 37 38 39 40 41 42 43 44 45 46 47 48 49 50
000
ASUS43 KLOT 250309
RWRIL

ILLINOIS REGIONAL WEATHER ROUNDUP
NATIONAL WEATHER SERVICE CHICAGO/ROMEOVILLE IL
1000 PM CDT WED MAY 24 2017

NOTE: "FAIR" INDICATES FEW OR NO CLOUDS BELOW 12,000 FEET WITH NO
SIGNIFICANT WEATHER AND/OR OBSTRUCTIONS TO VISIBILITY.

* THESE STATIONS ARE NOT UNDER NWS QUALITY CONTROL. THEY ALSO MAY NOT
  REPORT WEATHER SUCH AS PRECIPITATION OR FOG.

ILZ001-002-007-009-015-016-024-250400-
NORTHWEST ILLINOIS

CITY           SKY/WX    TMP DP  RH WIND       PRES   REMARKS
MOLINE         CLOUDY    59  51  75 N9        29.63R
STERLING*      CLOUDY    56  52  86 N12       29.63R
SAVANNA*       CLOUDY    56  51  82 N8        29.65S
$$

ILZ003-004-008-010-011-017-018-250400-
NORTH CENTRAL ILLINOIS

CITY           SKY/WX    TMP DP  RH WIND       PRES   REMARKS
ROCKFORD       CLOUDY    57  52  83 N12       29.63R
FREEPORT*      CLOUDY    54  50  87 N8        29.65S
ROCHELLE*      CLOUDY    55  52  92 N12       29.61S
DE KALB*       CLOUDY    57  54  89 N12G17    29.60R
PERU*          CLOUDY    56  52  87 N14       29.60S
$$

ILZ005-006-012>014-019>023-250400-
NORTHEAST ILLINOIS

CITY           SKY/WX    TMP DP  RH WIND       PRES   REMARKS
CHICAGO-OHARE  CLOUDY    54  48  80 N15       29.56S
CHICAGO-MIDWAY CLOUDY    52  49  89 N13       29.55S
AURORA         CLOUDY    59  50  72 N14       29.57S
LANSING*       CLOUDY    50  50 100 N7        29.55S
JOLIET*        CLOUDY    57  54  90 N9        29.55S
WAUKEGAN       CLOUDY    52  49  89 N9G16     29.58S
DUPAGE AIRPORT CLOUDY    56  52  86 N16       29.57R
KANKAKEE*      CLOUDY    54  53  95 N9        29.54S
WHEELING       CLOUDY    53  50  89 N9        29.59R
MORRIS*        CLOUDY    58  52  81 N3        29.55R
ROMEOVILLE*    CLOUDY    54  53  96 NE14      29.55S
NORTHERLY ISL    N/A     51  48  89 NW14        N/A
$$

LMZ740>746-250400-
SOUTHERN LAKE MICHIGAN

STATION/POSITION SKY/WX   TEMP    WIND        PRES    VSBY  WAVE
                          AIR SEA DIR/SP/G                  HT/PER
                          (F)     (DEG/KT/KT) (MB)    (MI)  (FT/S)
SOUTHERN BUOY              48 45  360/ 12/ 14 1001.1R         4/ 6
WILMETTE HARBOR            48 53                N/A           7/ 6
HARRISON CRIB              50     340/ 22/ 24   N/A
BURNHAM HARBOR             50     340/ 13/ 16   N/A
CALUMET HARBOR             50     330/ 11/ 17 1000.3R
BURNS HARBOR               50     340/  5/  7 1000.7S
MICHIGAN CITY              52     280/  3/  4   N/A
MICHIGAN CITY 6N           52 53  350/ 12/ 16   N/A           4/ 6
ST. JOSEPH                 56 56   30/ 12/ 14  999.7          3/ 5
$$

ILZ025>027-034>036-040-047-049-050-058-095>099-250400-
WEST-CENTRAL ILLINOIS

CITY           SKY/WX    TMP DP  RH WIND       PRES   REMARKS
QUINCY         PTCLDY    56  54  93 NW7       29.64R
GALESBURG*     CLOUDY    56  52  85 N8        29.63R
MACOMB*        PTCLDY    54  52  92 N3        29.65R
JACKSONVILLE*  CLOUDY    57  54  89 NW8       29.61S
PITTSFIELD*    CLOUDY    58  54  85 NW6       29.64R
$$

ILZ028>032-037-038-041>044-048-051>054-059>061-250400-
CENTRAL ILLINOIS

CITY           SKY/WX    TMP DP  RH WIND       PRES   REMARKS
PONTIAC        CLOUDY    59  56  91 N13       29.56F
BLOOMINGTON    CLOUDY    57  54  89 N15       29.57R
DECATUR        CLOUDY    59  54  83 NW13      29.55R
PEORIA         CLOUDY    58  53  84 N7        29.60R
LACON*         CLOUDY    57  54  89 N8        29.59S
LINCOLN*       CLOUDY    60  55  85 NW7       29.58R
SPRINGFIELD    CLOUDY    60  55  83 NW9       29.59R
TAYLORVILLE    CLOUDY    58  54  86 NW9       29.57S
$$

ILZ033-039-045-046-055>057-062-063-250400-
EAST-CENTRAL ILLINOIS

CITY           SKY/WX    TMP DP  RH WIND       PRES   REMARKS
CHAMPAIGN      CLOUDY    58  54  86 N14       29.52R
RANTOUL*       CLOUDY    58  56  92 N13       29.52S
MATTOON        CLOUDY    58  57  97 NW13      29.52R
PARIS*         DRIZZLE   57  56  99 NW7       29.51S
$$

ILZ079-100>102-250400-
SOUTHWEST ILLINOIS

CITY           SKY/WX    TMP DP  RH WIND       PRES   REMARKS
ALTON          CLOUDY    57  54  88 CALM      29.60R
BELLEVILLE     CLOUDY    60  52  73 NW8       29.60R
CAHOKIA*       CLOUDY    62  49  62 NW13      29.60R
SPARTA*        CLOUDY    58  49  71 NW5       29.60R
$$

ILZ064>066-069>071-074>076-080>082-084>086-088>090-092>094-250400-
SOUTH-CENTRAL ILLINOIS

CITY           SKY/WX    TMP DP  RH WIND       PRES   REMARKS
CARBONDALE     CLOUDY    60  52  74 NW5       29.58R
CAIRO*         CLEAR     60  51  72 W8        29.59R
EFFINGHAM*     HVY RAIN  58  58 100 NW6       29.55R
MARION         MOCLDY    59  54  82 CALM      29.58S
MT. VERNON       N/A     57  55  93 W3        29.56S
CENTRALIA*     CLOUDY    60  57  90 W6        29.56S
SALEM*         CLOUDY    59  56  88 NW6       29.56S
METROPOLIS*    PTCLDY    59  50  73 W5        29.58R
$$

ILZ067-068-072-073-078-083-087-091-250400-
SOUTHEAST ILLINOIS

CITY           SKY/WX    TMP DP  RH WIND       PRES   REMARKS
LAWRENCEVILLE  CLOUDY    59  57  93 NW10      29.50S
FLORA*         DRIZZLE   60  57  89 NW10      29.54S
FAIRFIELD*     LGT RAIN  57  56  98 W3        29.53S
HARRISBURG*    DRIZZLE   57  55  91 NW7       29.56S
ROBINSON*      CLOUDY    58  57  97 NW8       29.51R
CARMI*         LGT RAIN  57  56  97 W9        29.54R
$$

ABBREVIATIONS USED IN REMARKS
   TC - TEMPERATURE IN CELSIUS
  WCI - WIND CHILL INDEX
   HX - HEAT INDEX
  VSB - VISIBILITY
$$





USA.gov is the U.S. government's official web portal to all federal, state and local government web resources and services.